RIGIDSPHERE 2 (LCS 4) (5398 NORAD) Tracking and Keplerian Element Data

This shows tracking and keplerian element data for the satellite.

Feedback or suggestion? Click here.




ElementValue
Catalog5398
NameRIGIDSPHERE 2 (LCS 4)
Epoch Orbit78593
Epoch Day286.87125148
Epoch Year2024
RAAN148.7445
Inclination87.6259
Eccentricity0.0063212
Argument of Perigee102.1494
Mean Anonmoly258.6795
Mean Motion14.36327956
Decay Rate3.376E-05
L11 05398U 71067E 24286.87125148 .00003376 00000+0 11227-2 0 9997
L22 05398 87.6259 148.7445 0063212 102.1494 258.6795 14.36327956785932



Live tracking and technical data element details for RIGIDSPHERE 2 (LCS 4) (NORAD 5398). RIGIDSPHERE 2 (LCS 4) can be tracked NOW for your location showing map with azimuth and elevation plus other details from your city location.







IsCatalogInMostPopularTable: catalog: 5398, numindb: 603
Update: records affected: 1



GetName: 5398 RIGIDSPHERE 2 (LCS 4)

Hit Count: updated at: Wed, 04 Dec 2024 13:27:20 GMT